[[{"header":{"parameterUnit":"m.s-1","parameterCategory":1,"la1":30.2991,"la2":30.254,"lo1":-89.0895,"lo2":-89.0444,"dy":0.0017,"dx":0.0017,"nx":28,"ny":28,"refTime":"2024-03-19T21:00:00:Z","depth":0,"parameterNumber":2,"parameterNumberName":"U-component_of_WINDS"},"data":[0,0,0,0,0,0,0,0,0,0,0,0,0,0,0,0,0,0,0,0,0,0,0,0,0,0,0,0,0,0,0,0,0,0,0,0,0,0,0,0,0,0,0,0,0,0,0,0,0,0,0,0,0,0,0,0,0,0,0.8347,0.8347,0,0.8391,0.8392,0.8392,0.8396,0.8396,0.8395,0.8395,0.8437,0.8439,0.844,0,0,0,0,0,0,0,0,0,0,0,0,0,0.8262,0.8264,0.8347,0.8347,0.8348,0.8391,0.8392,0.8392,0.8396,0.8396,0.8395,0.8394,0.8437,0.8438,0.844,0,0,0,0,0,0,0,0,0,0,0,0,0,0.8302,0.8264,0.8347,0.8355,0.8356,0.8391,0.8392,0.8392,0.8396,0.8396,0.8395,0.8394,0.8436,0.8438,0.8441,0.8469,0,0,0.8448,0.8449,0,0,0,0,0,0,0,0,0.83,0.8305,0.8353,0.8355,0.8356,0.8387,0.8377,0.8418,0.8396,0.8381,0.8395,0.8394,0.8421,0.8424,0.8434,0.8471,0.8473,0.8448,0.8449,0.845,0.8451,0,0,0,0,0,0,0,0.8297,0.8303,0.8364,0.8354,0.8356,0.8355,0.836,0.8385,0.8404,0.8382,0.8383,0.8388,0.8421,0.8432,0.8435,0.8473,0.8448,0.845,0.8451,0.8452,0.8533,0.8533,0,0,0,0,0,0,0.8293,0.8301,0.8363,0.8366,0.8326,0.8358,0.8363,0.8378,0.8404,0.8407,0.8389,0.8388,0.8428,0.8432,0.8437,0.847,0.845,0.8453,0.8454,0.8532,0.8533,0.8534,0,0,0,0,0,0,0.8291,0.8298,0.8361,0.8333,0.8341,0.836,0.8376,0.8379,0.839,0.8409,0.8412,0.8396,0.8428,0.8433,0.846,0.8471,0.8454,0.8456,0.8531,0.8532,0.8533,0.8537,0,0,0,0,0,0,0.8289,0.8298,0.831,0.8334,0.8343,0.8385,0.8377,0.8381,0.8394,0.8394,0.8416,0.8419,0.8428,0.8457,0.8463,0.8474,0.8458,0.853,0.8532,0.8533,0.8536,0.8539,0.854,0,0,0,0,0,0.8286,0.8309,0.831,0.8318,0.8358,0.8386,0.8391,0.8401,0.8395,0.8406,0.8418,0.8419,0.847,0.846,0.8466,0.8479,0.853,0.8531,0.8533,0.8535,0.8538,0.854,0,0,0,0,0,0,0.8285,0.8312,0.8314,0.8346,0.8364,0.8387,0.8401,0.8404,0.8423,0.8422,0.8432,0.8437,0.8463,0.8474,0.8462,0.8506,0.8499,0.8502,0.8498,0.8501,0.8503,0.8499,0.8459,0,0,0,0,0,0.8289,0.831,0.8332,0.8358,0.8367,0.8383,0.8395,0.8401,0.842,0.8427,0.8441,0.8458,0.8477,0.849,0.8509,0.8538,0.8542,0.855,0.8552,0.8553,0.8555,0.857,0.8573,0.8539,0.8539,0.8539,0,0,0.8297,0.8314,0.8327,0.8359,0.8373,0.8394,0.8389,0.8411,0.8426,0.843,0.8456,0.8467,0.8486,0.8514,0.8527,0.8523,0.8566,0.8555,0.8557,0.8558,0.8572,0.8575,0.8578,0.854,0.854,0.854,0,0,0.8321,0.8337,0.836,0.8374,0.8396,0.8406,0.8411,0.8434,0.8441,0.8468,0.8471,0.8488,0.8522,0.8535,0.8546,0.8574,0.8575,0.858,0.859,0.8604,0.8606,0.8609,0.8617,0.862,0.8582,0.8582,0.8582,0,0.8328,0.836,0.8371,0.8393,0.8406,0.8411,0.8433,0.8446,0.8473,0.8481,0.8477,0.8519,0.8532,0.8562,0.8569,0.8578,0.8583,0.8577,0.8605,0.8608,0.861,0.8618,0.8621,0.8583,0.8583,0.8583,0.8582,0,0.8366,0.8388,0.8403,0.8429,0.8444,0.8466,0.8479,0.8492,0.8497,0.8506,0.8532,0.8549,0.8571,0.8578,0.8583,0.8608,0.8605,0.8603,0.8596,0.8614,0.8621,0.8625,0.8583,0.8583,0.8583,0.8583,0,0,0.8391,0.8423,0.8428,0.8439,0.8463,0.848,0.8501,0.8523,0.8533,0.8551,0.8568,0.8596,0.8594,0.8607,0.8613,0.8625,0.8644,0.8621,0.8622,0.8623,0.8671,0.8671,0.8675,0.8644,0.8645,0.8646,0.8669,0,0.8417,0.8456,0.8466,0.8499,0.8518,0.8522,0.854,0.8556,0.8566,0.8582,0.8592,0.8612,0.8608,0.8616,0.8628,0.8639,0.8653,0.8637,0.8659,0.8659,0.8653,0.8679,0.868,0.8701,0.8672,0.8672,0.8673,0,0.8453,0.8472,0.8506,0.8526,0.8535,0.8551,0.8571,0.8588,0.8605,0.8611,0.8624,0.8629,0.8649,0.8641,0.8669,0.8658,0.8667,0.8673,0.8674,0.8676,0.8666,0.868,0.8708,0.8711,0.8678,0.8678,0.8677,0,0.8466,0.85,0.8525,0.8534,0.8559,0.857,0.858,0.8597,0.8609,0.8626,0.8634,0.8653,0.8663,0.8677,0.8686,0.8679,0.8712,0.8705,0.8716,0.8716,0.8722,0.8721,0.8751,0.873,0.873,0.873,0.873,0,0.8493,0.8514,0.8531,0.8546,0.8568,0.8579,0.86,0.8611,0.8625,0.8641,0.8646,0.8661,0.8672,0.8688,0.8695,0.8716,0.8721,0.8725,0.8726,0.8724,0.8723,0.8729,0.8728,0.8731,0.873,0.873,0.873,0,0.8511,0.8524,0.8551,0.8572,0.8577,0.8593,0.861,0.8624,0.8633,0.8653,0.8658,0.8673,0.8691,0.8702,0.8725,0.873,0.8752,0.8754,0.8747,0.8747,0.8757,0.8755,0.8791,0.8795,0.8772,0.8773,0.8773,0,0.8527,0.8543,0.8566,0.8577,0.8588,0.8606,0.8618,0.8629,0.8641,0.8661,0.8672,0.8692,0.8707,0.8737,0.8748,0.8766,0.8767,0.8778,0.8769,0.8766,0.8765,0.8764,0.8765,0.8779,0.8779,0.8779,0.878,0,0.8554,0.8559,0.8577,0.8596,0.8611,0.8627,0.8643,0.8651,0.8664,0.8677,0.8697,0.8709,0.8733,0.8751,0.8769,0.8779,0.8781,0.8782,0.8785,0.8783,0.8777,0.8779,0.8749,0.8781,0.8781,0.8781,0.8781,0.8781,0.857,0.8584,0.8602,0.8621,0.8634,0.8648,0.8662,0.8673,0.8689,0.871,0.8715,0.8735,0.875,0.8775,0.8785,0.88,0.8798,0.8803,0.8804,0.8805,0.8804,0.8776,0.8804,0.8803,0.8803,0.8803,0.8803,0,0.8596,0.8607,0.8625,0.8647,0.8661,0.8663,0.868,0.8692,0.871,0.8724,0.874,0.8761,0.8779,0.8792,0.8809,0.8818,0.882,0.8823,0.8821,0.8823,0.8806,0.8801,0.8821,0.8821,0.8821,0.8821,0.8821,0.8821,0.8611,0.8633,0.864,0.8669,0.868,0.87,0.8709,0.8722,0.8734,0.8758,0.8772,0.8781,0.8794,0.8813,0.8828,0.8832,0.8837,0.884,0.8843,0.8827,0.8825,0.8823,0.8818,0.8841,0.8841,0.8859,0.8859,0.8859]},{"header":{"parameterUnit":"m.s-1","parameterCategory":1,"la1":30.2991,"la2":30.254,"lo1":-89.0895,"lo2":-89.0444,"dy":0.0017,"dx":0.0017,"nx":28,"ny":28,"refTime":"2024-03-19T21:00:00:Z","depth":0,"parameterNumber":3,"parameterNumberName":"V-component_of_WINDS"},"data":[0,0,0,0,0,0,0,0,0,0,0,0,0,0,0,0,0,0,0,0,0,0,0,0,0,0,0,0,0,0,0,0,0,0,0,0,0,0,0,0,0,0,0,0,0,0,0,0,0,0,0,0,0,0,0,0,0,0,2.1374,2.1374,0,2.1363,2.1363,2.1363,2.1317,2.1316,2.1315,2.1314,2.1302,2.1303,2.1303,0,0,0,0,0,0,0,0,0,0,0,0,0,2.1352,2.1353,2.1374,2.1374,2.1374,2.1363,2.1363,2.1363,2.1317,2.1316,2.1315,2.1313,2.1302,2.1302,2.1303,0,0,0,0,0,0,0,0,0,0,0,0,0,2.1353,2.1353,2.1374,2.135,2.1347,2.1363,2.1363,2.1363,2.1318,2.1316,2.1314,2.1313,2.1301,2.1302,2.1303,2.1341,0,0,2.1306,2.1307,0,0,0,0,0,0,0,0,2.1353,2.1354,2.1353,2.1351,2.1349,2.134,2.1351,2.1356,2.1318,2.1329,2.1314,2.1312,2.1316,2.1315,2.1317,2.1341,2.134,2.1307,2.1307,2.1308,2.1308,0,0,0,0,0,0,0,2.1353,2.1355,2.1369,2.1353,2.1351,2.1338,2.1337,2.1351,2.1331,2.1328,2.1324,2.1324,2.1314,2.1316,2.1316,2.134,2.1307,2.1307,2.1308,2.1308,2.1391,2.1393,0,0,0,0,0,0,2.1357,2.1355,2.137,2.1369,2.1347,2.134,2.1338,2.1344,2.1331,2.1327,2.1325,2.1322,2.1315,2.1315,2.1316,2.1357,2.1308,2.1309,2.1309,2.139,2.1392,2.1394,0,0,0,0,0,0,2.1357,2.1359,2.137,2.1361,2.1362,2.1342,2.1349,2.1345,2.1347,2.1329,2.1325,2.1331,2.1314,2.1314,2.1335,2.1356,2.1309,2.131,2.1388,2.139,2.1393,2.1442,0,0,0,0,0,0,2.1356,2.1359,2.1374,2.1362,2.1362,2.139,2.1351,2.1346,2.1349,2.1344,2.1333,2.133,2.1313,2.1333,2.1336,2.1357,2.1311,2.1386,2.1389,2.1392,2.1438,2.1445,2.1452,0,0,0,0,0,2.1356,2.1389,2.1375,2.1377,2.1381,2.1392,2.1392,2.1372,2.1351,2.1365,2.1353,2.133,2.1354,2.1336,2.1338,2.136,2.1384,2.1388,2.1392,2.1435,2.1444,2.1451,0,0,0,0,0,0,2.1404,2.1387,2.1371,2.1402,2.1399,2.1384,2.1402,2.1382,2.1385,2.138,2.1354,2.1352,2.1376,2.137,2.1351,2.1394,2.1365,2.1369,2.1397,2.1406,2.1412,2.1413,2.1311,0,0,0,0,0,2.1419,2.143,2.1414,2.1442,2.1441,2.1422,2.1426,2.141,2.1406,2.1404,2.1394,2.139,2.1396,2.1401,2.1406,2.1437,2.1433,2.1453,2.146,2.1465,2.1469,2.1482,2.149,2.1405,2.1405,2.1405,0,0,2.1448,2.144,2.1449,2.1451,2.1447,2.1457,2.1421,2.1435,2.1442,2.1406,2.1424,2.1417,2.141,2.1436,2.1446,2.1431,2.1491,2.147,2.1475,2.1475,2.1487,2.1495,2.1502,2.1408,2.1407,2.1407,0,0,2.1507,2.1503,2.1524,2.152,2.1514,2.1501,2.1506,2.1494,2.1488,2.1506,2.1478,2.1486,2.1498,2.1494,2.1493,2.1548,2.1526,2.1551,2.1586,2.1599,2.1606,2.1612,2.1629,2.1636,2.1554,2.1555,2.1555,0,2.1544,2.156,2.1538,2.1553,2.1553,2.1521,2.1542,2.1539,2.1535,2.1536,2.1519,2.1531,2.1525,2.1548,2.1561,2.1563,2.1566,2.1551,2.1607,2.1613,2.1618,2.1634,2.1641,2.1557,2.1557,2.1557,2.1556,0,2.1605,2.1616,2.1634,2.163,2.1633,2.1651,2.163,2.1636,2.162,2.1607,2.1625,2.1616,2.1617,2.1622,2.1606,2.1641,2.1632,2.1612,2.1582,2.1629,2.1643,2.165,2.1561,2.156,2.1559,2.1559,0,0,2.1695,2.1677,2.1683,2.168,2.167,2.1678,2.1693,2.1694,2.1698,2.1696,2.1707,2.1717,2.1697,2.1697,2.168,2.1692,2.1733,2.167,2.1669,2.168,2.1769,2.1783,2.179,2.1719,2.172,2.1721,2.1768,0,2.1749,2.1774,2.1754,2.1782,2.1791,2.176,2.1773,2.1767,2.1756,2.1761,2.1748,2.1755,2.173,2.1729,2.1739,2.1726,2.175,2.1723,2.1727,2.1728,2.1728,2.1798,2.1814,2.1859,2.1774,2.1775,2.1776,0,2.1816,2.1815,2.1845,2.183,2.1833,2.1846,2.1843,2.1849,2.1841,2.1832,2.1831,2.181,2.1823,2.1794,2.181,2.1791,2.1792,2.1786,2.1787,2.1785,2.1754,2.1797,2.1873,2.1879,2.1785,2.1784,2.1784,0,2.1875,2.1883,2.19,2.1899,2.1883,2.1892,2.1886,2.1876,2.1877,2.1876,2.1876,2.1876,2.1875,2.1875,2.1854,2.1836,2.1871,2.1842,2.1862,2.1863,2.187,2.187,2.1946,2.1874,2.1874,2.1874,2.1874,0,2.1937,2.1956,2.1926,2.1937,2.1956,2.1932,2.1951,2.1942,2.1934,2.1941,2.1914,2.1922,2.1895,2.1899,2.1883,2.1897,2.1897,2.1889,2.1884,2.189,2.1891,2.1889,2.1885,2.1876,2.1875,2.1875,2.1875,0,2.2006,2.1988,2.2005,2.1988,2.1984,2.1999,2.1984,2.1992,2.1979,2.1988,2.1989,2.1968,2.1971,2.1951,2.195,2.1939,2.196,2.1951,2.1963,2.1959,2.198,2.1978,2.2056,2.2064,2.1989,2.199,2.1991,0,2.2046,2.206,2.2044,2.2047,2.2042,2.2047,2.2047,2.2024,2.2025,2.2016,2.2025,2.2026,2.2025,2.2032,2.2016,2.2015,2.2004,2.2031,2.2003,2.2008,2.2002,2.2,2.2,2.2037,2.2038,2.2038,2.2039,0,2.2118,2.2108,2.211,2.2108,2.2109,2.2107,2.2103,2.2106,2.208,2.2083,2.2086,2.2085,2.2084,2.2084,2.208,2.2072,2.205,2.2048,2.2052,2.2058,2.2063,2.2058,2.1976,2.2046,2.2045,2.2045,2.2044,2.2044,2.2172,2.2182,2.2171,2.2174,2.2168,2.2164,2.217,2.2157,2.2159,2.2156,2.2142,2.2146,2.2136,2.2128,2.2122,2.2124,2.2111,2.2118,2.2119,2.2121,2.2124,2.2064,2.2124,2.2123,2.2123,2.2123,2.2123,0,2.2241,2.2232,2.2235,2.2229,2.223,2.221,2.2204,2.2206,2.2211,2.2203,2.2202,2.2204,2.2204,2.2187,2.2185,2.219,2.218,2.219,2.2188,2.2186,2.2137,2.2132,2.2198,2.2198,2.2198,2.2198,2.2198,2.2198,2.2277,2.2291,2.2279,2.2289,2.228,2.2284,2.2281,2.2277,2.227,2.2274,2.2273,2.2262,2.225,2.2246,2.2245,2.224,2.2239,2.2252,2.2243,2.2197,2.219,2.2183,2.2179,2.2253,2.2253,2.2292,2.2293,2.2293]}]]